Location: *
(42.5628°N, 2.3633°E)
Time: 13:25:06
(UTC+00:00)

Daily predictions for brighter satellites

Satellite Brightness Start Highest point End
(mag) Time Altitude Azimuth Time Altitude Azimuth Time Altitude Azimuth
FALCON 9 R/B 4.4 18:03:16 10° SW 18:09:07 33° SSE 18:33:05 10° ESE
Cosmos 2333 Rocket 4.3 18:32:54 10° WSW 18:37:55 31° NW 18:42:58 10° N
STARLINK-1230 3.6 18:36:43 10° SW 18:40:48 90° ESE 18:44:53 10° NE
STARLINK-1096 4.2 18:39:20 10° NW 18:43:11 42° NNE 18:47:01 10° E
STARLINK-1233 4.0 18:40:33 10° WSW 18:43:33 43° NNW 18:46:35 10° NE
STARLINK-1212 4.1 18:41:02 10° WSW 18:44:01 43° NNW 18:47:02 10° NE
STARLINK-1105 4.1 18:41:28 10° WSW 18:44:27 42° NNW 18:47:29 10° NE
STARLINK-1206 4.1 18:41:58 10° WSW 18:44:57 42° NNW 18:47:56 10° NE
FREGAT/IRIS 3.9 18:43:07 10° ESE 18:45:07 19° ENE 18:47:07 10° NNE
STARLINK-1247 4.1 18:42:24 10° WSW 18:45:22 41° NNW 18:48:22 10° NE
STARLINK-1243 3.7 18:41:33 10° SW 18:45:36 84° NW 18:49:42 10° NE
STARLINK-1227 4.1 18:42:50 10° WSW 18:45:49 41° NNW 18:48:49 10° NE
STARLINK-1218 4.1 18:43:19 10° WSW 18:46:18 41° NNW 18:49:16 10° NE
Abrixas rocket 3.4 18:44:11 10° SSW 18:46:30 21° SE 18:48:52 10° E
STARLINK-1226 4.1 18:43:46 10° WSW 18:46:44 40° NNW 18:49:43 10° NE
STARLINK-1254 4.2 18:44:12 10° WSW 18:47:10 40° NNW 18:50:10 10° NE
STARLINK-1215 4.2 18:44:41 10° WSW 18:47:39 40° NNW 18:50:37 10° NE
STARLINK-1231 4.2 18:45:08 10° WSW 18:48:05 39° NNW 18:51:03 10° NE
STARLINK-1079 4.1 18:44:22 10° NW 18:48:15 45° NNE 18:52:08 10° ESE
STARLINK-1232 4.2 18:46:03 10° WSW 18:49:00 39° NNW 18:51:58 10° NE
Cosmos 1953 4.3 18:48:31 10° E 18:49:20 11° E 18:50:11 10° ENE
STARLINK-1217 4.2 18:46:30 10° W 18:49:27 39° NNW 18:52:25 10° NE
STARLINK-1208 4.3 18:46:55 10° W 18:49:53 38° NNW 18:52:52 10° NE
STARLINK-1229 4.3 18:47:25 10° W 18:50:20 38° NNW 18:53:18 10° NE
STARLINK-1236 3.7 18:46:19 10° WSW 18:50:23 78° NW 18:54:28 10° NE
STARLINK-1271 4.3 18:47:51 10° W 18:50:48 38° NNW 18:53:45 10° NE
Cosmos 304 Rocket 3.8 18:46:20 10° NNW 18:51:05 60° ENE 18:55:48 10° SSE
STARLINK-1270 4.3 18:48:20 10° W 18:51:16 37° NNW 18:54:13 10° NE
STARLINK-1154 4.3 18:48:47 10° W 18:51:43 37° NNW 18:54:39 10° NE
Cosmos 1709 Rocket 4.4 18:45:59 10° N 18:51:50 42° ENE 18:57:35 10° SE
SeaSat 1 4.0 18:47:56 10° NNE 18:52:33 40° NW 18:57:08 10° SW
Cosmos 1269 Rocket 4.1 18:47:26 10° S 18:52:35 56° ESE 18:57:46 10° NNE
STARLINK-1197 4.3 18:49:42 10° W 18:52:37 37° NNW 18:55:34 10° NE
STARLINK-1116 4.0 18:48:46 10° NW 18:52:42 48° NNE 18:56:26 11° ESE
STARLINK-1189 4.3 18:50:09 10° W 18:53:05 36° NNW 18:56:01 10° NE
STARLINK-1188 4.4 18:51:04 10° W 18:53:59 36° NNW 18:56:54 10° NE
STARLINK-1198 4.4 18:51:05 10° W 18:53:59 36° NNW 18:56:54 10° NE
STARLINK-1199 4.4 18:53:01 10° W 18:55:56 35° NNW 18:58:52 10° NE
STARLINK-1191 4.4 18:53:29 10° W 18:56:23 35° NNW 18:59:19 10° NE
SL-08 ROCKET BODY 4.4 18:50:36 10° N 18:56:45 75° E 19:02:44 10° SSE
STARLINK-1210 4.5 18:53:57 10° W 18:56:51 34° NNW 18:59:46 10° NE
STARLINK-1221 4.5 18:54:23 10° W 18:57:17 34° NNW 19:00:13 10° NE
STARLINK-1219 4.5 18:54:51 10° W 18:57:45 34° NNW 19:00:41 10° NE
STARLINK-1222 4.5 18:55:19 10° W 18:58:12 34° NNW 19:01:07 10° NE
YAOGAN 1 4.0 18:54:11 10° S 18:58:17 42° W 19:02:25 10° NNW
STARLINK-1118 3.2 18:56:47 10° WNW 18:58:51 36° SW 19:00:53 10° SSE
ISS -1.6 18:57:06 10° NW 18:59:32 18° N 19:01:59 10° NE
STARLINK-1269 4.0 18:56:11 10° WSW 19:00:14 66° NNW 19:04:18 10° NE
Cosmos 1455 Rocket 3.0 18:56:14 10° S 19:00:32 71° E 19:04:53 10° NNE
STARLINK-1094 3.9 18:58:00 10° NW 19:01:59 55° NNE 19:05:21 14° ESE
Cosmos 371 Rocket 4.4 18:57:56 10° NNW 19:02:34 48° WSW 19:07:11 10° S
Cosmos 2297 3.9 18:57:09 10° NNW 19:02:42 53° ENE 19:08:14 10° SE
S3M 4.2 18:57:59 10° S 19:04:20 83° W 19:10:47 10° N
STARLINK-1200 4.1 19:01:02 10° WSW 19:05:03 61° NNW 19:09:07 10° NE
Cosmos 2237 Rocket 3.2 18:59:39 10° SW 19:05:06 51° WNW 19:10:36 10° NNE
STARLINK-1117 3.8 19:02:50 10° NW 19:06:51 59° NNE 19:10:00 16° ESE
Cosmos 1386 Rocket 4.5 19:01:44 10° N 19:07:48 89° W 19:13:49 10° S
Cosmos 1805 4.2 19:04:58 10° SSW 19:08:47 52° W 19:12:37 10° N
STARLINK-1192 4.2 19:05:48 10° WSW 19:09:49 57° NNW 19:13:51 10° NE
Cosmos 1892 Rocket 3.9 19:05:24 10° NNW 19:09:53 74° W 19:14:21 10° S
CZ-2C R/B 3.8 19:06:41 10° NE 19:10:28 20° E 19:14:07 10° SE
Cosmos 1626 Rocket 4.1 19:06:32 10° N 19:10:39 37° ENE 19:14:42 10° SE
STARLINK-1078 3.7 19:07:16 10° NW 19:11:18 64° NNE 19:14:17 17° ESE
BREEZE-M DEB (TANK) 3.5 19:01:19 10° WNW 19:12:55 65° SW 19:15:44 14° SE
Cosmos 2278 Rocket 3.7 19:08:24 10° NW 19:13:36 38° WSW 19:18:48 10° S
Meteor 2-5 Rocket 4.2 19:08:42 10° NNW 19:14:18 65° W 19:19:46 10° S
ARGOS 3.2 19:09:27 10° SSE 19:14:44 59° ENE 19:20:02 10° N
STARLINK-1244 4.3 19:10:46 10° WSW 19:14:45 53° NNW 19:18:46 10° NE
STARLINK-1108 3.6 19:12:07 10° NW 19:16:11 69° NE 19:18:58 19° ESE
Cosmos 1602 Rocket 4.2 19:14:31 10° N 19:18:39 36° ENE 19:21:45 16° SE
STARLINK-1138 4.5 19:15:24 10° WSW 19:19:22 49° NNW 19:23:22 10° NE
STARLINK-1071 3.5 19:16:46 10° NW 19:20:50 75° NE 19:23:26 21° ESE
Okean 1-7 Rocket 4.1 19:17:33 10° NNW 19:21:54 63° W 19:26:13 10° S
USA 186 1.8 19:18:36 10° SSE 19:22:02 74° ENE 19:25:25 10° N
MOS 1 Rocket 4.4 19:20:23 10° NE 19:24:58 29° E 19:29:37 10° SSE
STARLINK-1110 3.5 19:21:13 10° NW 19:25:18 80° NE 19:27:43 23° ESE
Meteor 1-24 Rocket 3.9 19:20:04 10° NNW 19:25:33 70° W 19:30:52 10° S
STARLINK-1124 3.6 19:22:36 10° NW 19:26:46 83° NE 19:29:13 24° ESE
CZ-2C R/B 2.9 19:22:04 10° SSE 19:27:09 79° ENE 19:32:02 10° N
Cosmos 1544 Rocket 3.7 19:23:44 10° SSW 19:28:06 78° W 19:32:33 10° N
Cosmos 1470 2.6 19:26:20 10° S 19:30:09 68° E 19:34:02 10° NNE
SPOT 3 Rocket 3.7 19:29:48 15° SE 19:33:55 53° ENE 19:38:59 10° N
STARLINK-1122 3.5 19:30:40 10° NW 19:34:45 87° SW 19:36:48 28° SE
MOS 1 4.3 19:30:09 10° SSE 19:35:47 87° WSW 19:41:29 10° NNW
STARLINK-1126 3.6 19:35:39 10° NW 19:39:43 80° SW 19:41:36 31° SE
SJ-6B 2.8 19:36:17 12° SSE 19:40:05 89° ENE 19:44:14 10° NNW
Cosmos 2369 Rocket 3.0 19:35:47 10° N 19:40:59 35° ENE 19:43:14 26° E
Cosmos 1726 3.4 19:42:57 24° ENE 19:42:57 24° ENE 19:45:13 10° NNE
H-2A R/B 4.0 19:33:59 10° W 19:42:20 18° SW 19:45:42 10° S
Ariane Rocket 3.7 19:38:09 10° S 19:43:07 54° W 19:48:06 10° NNW
Cosmos 1758 3.3 19:40:02 10° S 19:44:07 90° W 19:48:14 10° N
STARLINK-1082 3.6 19:40:09 10° WNW 19:44:12 74° SW 19:45:54 33° SE
Aureole 2 Rocket 3.7 19:43:11 10° N 19:45:56 26° NE 19:45:56 26° NE
NOSS 3-3 (A) 4.2 19:41:28 10° S 19:46:49 42° ESE 19:52:44 10° NE
NOSS 3-3 (C) 4.2 19:41:36 10° S 19:46:56 41° ESE 19:52:49 10° NE
Cosmos 1758 Rocket 4.2 19:43:32 10° N 19:47:30 33° ENE 19:47:54 32° E
STARLINK-1100 3.7 19:45:04 10° WNW 19:49:07 68° SW 19:50:38 36° SSE
CZ-2C R/B 3.7 19:45:55 10° NNE 19:50:43 80° ESE 19:55:22 10° S
STARLINK-1084 4.5 19:49:53 10° NW 19:53:48 39° NNE 19:54:56 32° ENE
STARLINK-1083 3.8 19:49:50 10° WNW 19:53:52 62° SW 19:55:12 38° SSE
Cosmos 2184 Rocket 4.2 19:50:37 10° N 19:56:47 51° ENE 19:59:37 30° SE
IRIDIUM 106 4.2 19:51:44 10° N 19:56:57 69° E 20:00:12 23° SSE
STARLINK-1125 3.9 19:54:22 10° WNW 19:58:23 57° SW 19:59:34 39° SSE
STARLINK-1098 4.3 19:54:52 10° NW 19:58:49 41° NNE 19:59:43 36° ENE
Cosmos 1943 3.6 20:01:05 35° SE 20:02:09 39° ESE 20:07:23 10° NE
Cosmos 1943 Rocket 2.1 19:57:02 10° NNW 20:02:33 65° ENE 20:04:35 39° SE
STARLINK-1109 4.1 19:59:12 10° WNW 20:03:11 52° SW 20:04:12 40° S
Meteor 1-21 Rocket 4.1 19:57:41 10° N 20:03:16 75° E 20:06:08 30° SSE
STARLINK-1123 4.2 19:59:49 10° NW 20:03:48 44° NNE 20:04:30 40° ENE
Meteor 2-10 4.1 20:00:44 19° S 20:04:27 60° E 20:09:52 10° NNE
SL-8 R/B 4.4 20:01:16 10° WNW 20:05:51 45° N 20:07:35 31° ENE
Resurs 1-3 3.5 20:05:32 40° SSE 20:07:05 85° ENE 20:11:29 10° NNW
STARLINK-1091 4.2 20:04:03 10° WNW 20:07:59 47° SW 20:08:50 40° S
STARLINK-1097 4.1 20:04:46 10° NW 20:08:48 47° NNE 20:09:16 44° NE
Cosmos 1626 4.3 20:06:52 10° NNW 20:10:00 26° W 20:13:06 10° SSW
ATLAS 2AS CENTAUR R/B 3.9 20:04:49 10° NNW 20:11:29 31° NE 20:14:22 24° ENE
H-2A R/B 3.6 20:08:57 10° SSW 20:13:47 35° W 20:18:33 10° NNW
STARLINK-1099 4.0 20:09:45 10° NW 20:13:48 50° NNE 20:14:04 49° NE
Aureole 3 4.0 20:12:25 12° SSW 20:16:02 62° WNW 20:20:59 10° N
Resurs 01 Rocket 1.5 20:16:28 65° SE 20:16:59 76° ENE 20:21:24 10° N
USA 234 3.4 20:10:38 10° NE 20:17:09 72° NW 20:23:39 10° WSW
Cosmos 2154 Rocket 4.3 20:11:44 10° N 20:17:52 48° ENE 20:18:59 44° ESE
STARLINK-1104 3.9 20:14:43 10° NW 20:18:48 54° NNE 20:18:51 54° NE
SL-16 R/B 3.8 20:14:35 10° WSW 20:19:45 36° WNW 20:24:57 10° N
DMSP B5D2-2 4.1 20:15:01 10° N 20:20:15 79° WNW 20:25:28 10° SSW
Cosmos 2228 3.9 20:22:40 36° NE 20:22:40 36° NE 20:25:26 10° NNE
Abrixas rocket 3.8 20:19:01 10° WSW 20:20:46 30° W 20:20:46 30° W
Cosmos 967 Rocket 4.4 20:15:39 10° SSW 20:22:00 67° ESE 20:28:26 10° NE
STARLINK-1144 3.9 20:19:42 10° NW 20:23:38 58° NNE 20:23:38 58° NNE
Cosmos 1953 2.9 20:23:07 25° SSW 20:25:10 55° W 20:29:06 10° N
STARLINK-1103 3.9 20:24:39 10° NW 20:28:25 60° N 20:28:25 60° N
Nadezhda 1 Rocket 3.9 20:29:47 43° SSE 20:31:58 69° E 20:38:20 10° NNE
Cosmos 1992 Rocket 3.9 20:27:06 10° NNW 20:32:20 85° WSW 20:33:07 65° S
STARLINK-1101 4.0 20:29:37 10° NW 20:33:11 59° NNW 20:33:11 59° NNW
ISS -1.9 20:33:43 10° NW 20:35:39 29° NNW 20:35:39 29° NNW
STARLINK-1102 4.2 20:34:34 10° NW 20:37:58 56° NNW 20:37:58 56° NNW
MetOp-B 4.0 20:40:10 75° ESE 20:40:24 77° ENE 20:45:47 10° N
Cosmos 1603 3.7 20:35:40 10° SSW 20:41:19 80° WNW 20:46:58 10° NNE
Cosmos 2251 Rocket 4.1 20:36:59 10° SW 20:42:15 57° WNW 20:47:34 10° NNE
Meteor 1-16 Rocket 4.2 20:40:19 35° SSW 20:42:37 74° W 20:48:05 10° N
STARLINK-1111 4.3 20:39:34 10° NW 20:42:45 51° NW 20:42:45 51° NW
Cosmos 2084 Rocket 3.9 20:39:33 10° NW 20:43:30 64° WNW 20:43:30 64° WNW
ERS-1 Rocket 4.1 20:48:38 32° NNE 20:48:38 32° NNE 20:51:51 10° N
Cosmos 2074 Rocket 4.4 20:44:09 10° NNW 20:50:19 61° W 20:53:01 34° SSW
CZ-2C R/B 3.3 20:46:03 10° N 20:51:02 50° WNW 20:55:39 12° SW
Cosmos 1656 Rocket 3.9 20:57:06 10° NNW 21:02:03 63° NNE 21:02:03 63° NNE
Aureole 1 Rocket 4.3 21:01:51 65° SSE 21:02:50 73° ESE 21:09:39 10° NNE
Meteor 1-11 4.2 20:59:02 10° N 21:04:29 79° NNW 21:04:29 79° NNW
COSMOS 2455 4.0 21:10:36 10° NNW 21:15:09 31° NNE 21:15:09 31° NNE
Cosmos 2341 Rocket 4.1 21:17:10 10° N 21:22:43 69° N 21:22:43 69° N
Cosmos 2369 Rocket 3.3 21:19:51 10° NW 21:24:59 36° WSW 21:25:03 36° WSW
Terra 3.7 21:32:45 24° N 21:32:45 24° N 21:34:41 10° N
NOSS 3-4 (A) 3.9 21:23:30 10° NNW 21:30:09 66° NE 21:30:09 66° NE
NOSS 3-4 (C) 3.9 21:23:36 10° NNW 21:30:14 65° NE 21:30:14 65° NE
Cosmos 1943 Rocket 4.3 21:42:09 10° WNW 21:45:42 18° W 21:46:08 18° WSW
ATLAS 2AS CENTAUR R/B 3.2 21:55:43 10° NW 22:01:48 59° NW 22:01:48 59° NW
